{"data":{"norad_id":44874,"epoch":"2026-05-25T02:06:51.465024Z","epoch_age_seconds":67142,"freshness":"FRESH","line1":"1 44874U 19092B   26145.08809566  .00000254  00000+0  60120-4 0  9991","line2":"2 44874  98.1510 333.6795 0010808 165.1614 194.9907 14.61946046342526","mean_motion":14.61946046,"eccentricity":0.0010808,"inclination_deg":98.151,"raan_deg":333.6795,"arg_perigee_deg":165.1614,"mean_anomaly_deg":194.9907,"bstar":6.012e-5,"rev_number":34252,"period_min":98.498847063471,"perigee_km":679.26146510351,"apogee_km":694.53324336362,"semimajor_km":7065.0343542336,"source":"CELESTRAK","updated_at":"2026-05-25T13:37:56.037578Z"}}